This demonstration page uses our WeatherBlox Daily Observations layout. Learn more.

Left ArrowRight Arrow

Hourly Observations for March 2, 2019

Temp ( °F °C ) Dew Point ( °F °C ) Humidity (%) Winds ( mph kmh ) Pressure ( in mb ) Visibility ( mi km ) Precip ( " mm )
12:57 am 00:57 Cloudy 19 -7.2 15 -9.4 84 84 NNE 9 15 30.34 1027 10 16 0.00 0.00
1:57 am 01:57 Cloudy 19 -7.2 15 -9.4 84 84 N 10 17 30.36 1028 10 16 0.00 0.00
2:24 am 02:24 Cloudy 18 -8 16 -9 93 93 N 12 19 30.45 1031 10 16 0.00 0.00
2:47 am 02:47 Cloudy 18 -8 14 -10 86 86 N 14 22 30.45 1031 10 16 0.00 0.00
2:57 am 02:57 Cloudy 18 -7.8 14 -10 84 84 N 9 15 30.37 1029 10 16 0.00 0.00
3:57 am 03:57 Cloudy 18 -7.8 14 -10 84 84 NNE 13 20 30.34 1027 10 16 0.00 0.00
5:57 am 05:57 Cloudy 16 -8.9 12 -11.1 84 84 NNE 17 28 30.35 1028 10 16 0.00 0.00
6:54 am 06:54 Cloudy with Light Snow 16 -9 12 -11 86 86 N 12 19 30.50 1033 4 6 0.00 0.03
6:57 am 06:57 Cloudy with Light Snow 15 -9.4 12 -11.1 88 88 N 12 19 30.43 1030 4 6 0.00 0.03
7:14 am 07:14 Cloudy with Light Snow 16 -9 10 -12 79 79 NNE 15 24 30.50 1033 2 3 0.00 0.03
7:31 am 07:31 Cloudy with Light Snow 16 -9 12 -11 86 86 NNE 10 17 30.50 1033 1 2 0.00 0.03
7:42 am 07:42 Cloudy with Light Snow 14 -10 12 -11 92 92 NE 12 19 30.50 1033 1 2 0.00 0.00
7:57 am 07:57 Cloudy with Light Snow 14 -10 11 -11.7 88 88 NE 12 19 30.42 1030 1 2 0.00 0.03
8:06 am 08:06 Cloudy with Light Snow 14 -10 10 -12 85 85 NNE 14 22 30.50 1033 1 1 0.00 0.03
8:20 am 08:20 Cloudy with Light Snow 14 -10 10 -12 85 85 NNE 13 20 30.51 1033 1 2 0.00 0.03
8:44 am 08:44 Cloudy with Light Snow 14 -10 10 -12 85 85 NNE 10 17 30.54 1034 1 1 0.00 0.03
8:57 am 08:57 Cloudy with Light Snow 14 -10 11 -11.7 88 88 NNE 14 22 30.48 1032 1 1 0.00 0.03
9:04 am 09:04 Cloudy with Snow 14 -10 10 -12 85 85 NNE 14 22 30.56 1035 1 1 0.00 0.00
9:22 am 09:22 Cloudy with Light Snow 14 -10 10 -12 85 85 NNE 14 22 30.55 1035 1 1 0.00 0.03
9:37 am 09:37 Cloudy with Light Snow 14 -10 10 -12 85 85 NE 17 28 30.54 1034 1 2 0.00 0.03
10:11 am 10:11 Windy with Snow Likely 14 -10 10 -12 85 85 NE 22 35 30.54 1034 2 2 0.00 0.00
10:25 am 10:25 Windy with Snow Likely 14 -10 10 -12 85 85 NNE 20 31 30.54 1034 3 4 0.00 0.03
10:41 am 10:41 Cloudy with Light Snow 14 -10 10 -12 85 85 NNE 17 28 30.54 1034 3 5 0.00 0.03
10:57 am 10:57 Windy with Snow Likely 14 -10 10 -12.2 84 84 NE 25 41 30.44 1031 2 3 0.00 0.03
11:24 am 11:24 Cloudy with Light Snow 14 -10 10 -12 85 85 NE 17 28 30.53 1034 2 3 0.00 0.03
11:57 am 11:57 Windy with Snow Likely 14 -10 10 -12.2 84 84 NE 21 33 30.46 1032 2 3 0.00 0.03
12:27 pm 12:27 Cloudy with Light Snow 14 -10 10 -12 85 85 NNE 16 26 30.55 1035 3 5 0.00 0.03
12:57 pm 12:57 Cloudy with Light Snow 14 -10 10 -12.2 84 84 NNE 13 20 30.48 1032 9 14 0.00 0.03
1:52 pm 13:52 Cloudy with Light Snow 14 -10 9 -13 79 79 NNE 17 28 30.54 1034 9 14 0.00 0.03
1:57 pm 13:57 Cloudy with Light Snow 14 -10 9 -12.8 80 80 NNE 16 26 30.45 1031 8 13 0.00 0.03
2:57 pm 14:57 Windy with Snow Likely 14 -10 9 -12.8 80 80 NE 20 31 30.45 1031 9 14 0.00 0.03
3:57 pm 15:57 Cloudy with Light Snow 13 -10.6 8 -13.3 81 81 NNE 18 30 30.47 1032 9 14 0.00 0.03
4:57 pm 16:57 Cloudy with Light Snow 13 -10.6 8 -13.3 81 81 NNE 17 28 30.48 1032 5 8 0.00 0.03
5:36 pm 17:36 Windy with Snow Likely 12 -11 7 -14 79 79 NNE 21 33 30.57 1035 8 13 0.00 0.03
5:57 pm 17:57 Windy with Snow Likely 11 -11.7 7 -13.9 84 84 NNE 20 31 30.49 1033 9 14 0.00 0.03
6:57 pm 18:57 Windy with Snow Likely 10 -12.2 6 -14.4 84 84 NNE 20 31 30.50 1033 9 14 0.00 0.03
7:57 pm 19:57 Windy with Snow Likely 9 -12.8 4 -15.6 80 80 NNE 21 33 30.51 1033 9 14 0.00 0.03
8:57 pm 20:57 Windy with Snow Likely 8 -13.3 3 -16.1 80 80 NNE 23 37 30.52 1034 9 14 0.00 0.03
9:57 pm 21:57 Windy with Snow Likely 7 -13.9 3 -16.1 84 84 NNE 20 31 30.52 1034 9 14 0.00 0.03
10:29 pm 22:29 Windy with Snow Likely 7 -14 3 -16 85 85 NNE 21 33 30.62 1037 3 4 0.00 0.03
10:45 pm 22:45 Windy with Snow Likely 7 -14 3 -16 85 85 NNE 20 31 30.62 1037 3 5 0.00 0.03
10:57 pm 22:57 Windy with Snow Likely 6 -14.4 3 -16.1 87 87 NNE 20 31 30.52 1034 3 4 0.00 0.03
11:48 pm 23:48 Cloudy with Light Snow 5 -15 1 -17 85 85 N 18 30 30.65 1038 3 5 0.00 0.03
11:57 pm 23:57 Cloudy with Light Snow 4 -15.6 1 -17.2 88 88 N 18 30 30.55 1034 3 5 0.00 0.03

Powered by AerisWeather